Menu       Home   X °F

Select another period ( hide this area )

Units Period Custom range Directly to
Metric English Both
Daily Weekly Monthly Yearly
use both date-selectors for a custom range
previous Day
With this date
Daily Summary for Sunday 25 February 2024
Time Temp. ( °C ) Dew pt. ( °C ) Wind ( km/h ) From Gust ( km/h ) Pressure ( hPa ) Humid.( % ) Rainrate ( cm )
High3,7 3,2 5,0 SSE ( 17/30 ) 6,0 998,8 96 0,20
Average0,3 -0,6 0,3 Calm #92/101 0,7 998,5 94 0,40
Low-1,7 -2,7 -   0,0 998,1 92 -
Daily Tabular details for Sunday 25 February 2024
Time Temp. ( °C ) Dew pt. ( °C ) Wind ( km/h ) From Gust ( km/h ) Pressure ( hPa ) Humid.( % ) Rainrate ( cm )
00:04 -0,6 -1,6   Calm   998,6 93 -
00:09 -0,6 -1,6   Calm   998,6 93 -
00:14 -0,8 -1,9   Calm   998,8 92 -
00:19 -0,9 -1,9   Calm   998,8 93 -
00:24 -0,9 -1,9   Calm   998,8 93 -
00:29 -0,7 -1,7   Calm   998,8 93 -
00:34 -0,7 -1,7   Calm   998,8 93 -
00:39 -0,7 -1,7   Calm   998,8 93 -
00:44 -0,9 -1,9   Calm   998,7 93 -
00:49 -0,8 -1,8   Calm   998,7 93 -
00:54 -0,7 -1,7   Calm   998,7 93 -
00:59 -0,7 -1,7   Calm   998,7 93 -
01:04 -0,6 -1,6   Calm   998,7 93 -
01:09 -0,6 -1,6   Calm   998,7 93 -
01:14 -0,6 -1,6   Calm   998,7 93 -
01:19 -0,8 -1,8   Calm   998,8 93 -
01:24 -0,9 -1,9   Calm   998,7 93 -
01:29 -1,1 -2,2   Calm   998,7 92 -
01:34 -1,2 -2,2   Calm   998,8 93 -
01:39 -1,2 -2,2   Calm   998,7 93 -
01:44 -1,2 -2,2   Calm   998,8 93 -
01:49 -1,3 -2,3   Calm   998,7 93 -
01:54 -1,5 -2,5   Calm   998,7 93 -
01:59 -1,6 -2,6   Calm   998,7 93 -
02:04 -1,6 -2,6   Calm   998,7 93 -
02:09 -1,6 -2,6   Calm   998,6 93 -
02:14 -1,6 -2,6   Calm   998,6 93 -
02:19 -1,6 -2,6   Calm   998,6 93 -
02:24 -1,6 -2,6   Calm   998,5 93 -
02:29 -1,6 -2,6   Calm   998,5 93 -
02:34 -1,6 -2,6   Calm   998,5 93 -
02:39 -1,6 -2,4   Calm   998,5 94 -
02:44 -1,5 -2,3   Calm   998,5 94 -
02:49 -1,6 -2,6   Calm   998,5 93 -
02:54 -1,7 -2,6   Calm   998,4 93 -
02:59 -1,7 -2,7   Calm   998,5 93 -
03:04 -1,6 -2,4   Calm   998,5 94 -
03:09 -1,4 -2,3   Calm   998,4 94 -
03:14 -1,2 -2,1   Calm   998,3 94 -
03:19 -1,2 -2,0   Calm   998,3 94 -
03:24 -1,1 -1,9   Calm   998,3 94 -
03:29 -0,5 -1,2   Calm   998,3 95 -
03:34 -0,2 -0,9   Calm   998,4 95 -
03:39 0,0 -0,7   Calm   998,3 95 -
03:44 0,0 -0,7   Calm   998,2 95 -
03:49 -0,1 -0,8   Calm   998,2 95 -
03:54 0,0 -0,8   Calm   998,2 94 -
03:59 0,0 -0,8   Calm   998,2 94 -
04:04 -0,1 -0,9   Calm   998,4 94 -
04:09 -0,1 -0,9   Calm   998,4 94 -
04:14 0,3 -0,4   Calm   998,5 95 -
04:19 0,3 -0,4   Calm   998,5 95 -
04:24 0,5 -0,2   Calm   998,5 95 -
04:29 0,6 -0,2   Calm   998,4 95 -
04:34 0,4 -0,4   Calm   998,4 94 -
04:39 0,4 -0,4   Calm   998,4 94 -
04:44 0,4 -0,4   Calm   998,5 94 -
04:49 0,3 -0,6   Calm   998,4 94 -
04:54 0,6 -0,2   Calm   998,4 94 -
04:59 0,7 0,0   Calm   998,5 95 -
05:04 0,9 0,2   Calm   998,5 95 -
05:09 1,1 0,3   Calm   998,5 95 -
05:14 1,1 0,3   Calm   998,5 95 -
05:19 1,2 0,4   Calm   998,4 95 -
05:24 1,2 0,3   Calm   998,4 94 -
05:29 1,2 0,4   Calm   998,4 94 -
05:34 1,3 0,4   Calm   998,4 94 -
05:39 1,3 0,4   Calm   998,4 94 -
05:44 1,3 0,4   Calm   998,4 94 -
05:49 1,3 0,5   Calm   998,5 94 -
05:54 1,3 0,5   Calm   998,5 94 -
05:59 1,3 0,5   Calm   998,5 94 -
06:04 1,3 0,5   Calm   998,5 94 -
06:09 1,3 0,4   Calm   998,5 94 -
06:14 1,2 0,3   Calm   998,4 94 -
06:19 1,2 0,4   Calm 2,0 998,5 94 -
06:24 1,3 0,4   Calm 2,0 998,5 94 -
06:29 1,2 0,4   Calm   998,4 94 -
06:34 1,3 0,4   Calm   998,4 94 -
06:39 1,3 0,4   Calm 2,0 998,3 94 -
06:44 1,3 0,5   Calm 2,0 998,4 94 -
06:49 1,3 0,5   Calm 2,0 998,4 94 -
06:54 1,4 0,7   Calm   998,4 95 -
06:59 1,6 0,8   Calm   998,4 95 -
07:04 1,7 0,9   Calm   998,4 95 -
07:09 1,7 1,0   Calm   998,4 95 -
07:14 1,7 1,0   Calm   998,3 95 -
07:19 1,6 0,9   Calm   998,3 95 -
07:24 1,8 1,1   Calm 2,0 998,3 95 -
07:29 1,9 1,2   Calm 2,0 998,3 95 -
07:34 2,1 1,3 3,0 SSE 6,0 998,3 95 -
07:39 2,2 1,5 3,0 SSE 6,0 998,3 95 -
07:44 2,3 1,6 3,0 SSE 6,0 998,3 95 -
07:49 2,2 1,5   Calm 5,0 998,3 95 -
07:54 2,2 1,5   Calm 2,0 998,3 95 -
07:59 2,4 1,7 3,0 SSE 6,0 998,2 95 -
08:04 2,8 2,1 3,0 South 6,0 998,2 95 0,20
08:09 3,2 2,4 2,0 South 5,0 998,2 95 0,20
08:14 3,5 2,9 5,0 SSE 6,0 998,2 96 0,20
08:19 3,7 3,1 4,0 South 6,0 998,1 96 0,20
08:20 3,7 3,2 4,0 South 6,0 998,1 96 0,20

Our weather-data as stored at Weather Underground. Original script b Jim McMurry. Rewritten for template use Leuven-Template